Weather History for Chipley, FL

Change the Weather History Date:

Sunday, August 11, 2013

  Actual Average (KMAI) Record (KMAI)
Temperature  
Mean Temperature 86 °F 82 °F  
Max Temperature 93 °F 91 °F 102 °F (2007)
Min Temperature 80 °F 73 °F 66 °F (2002)
Degree Days  
Heating Degree Days 0    
Month to date heating degree days  
Since 1 June heating degree days  
Since 1 July heating degree days  
Cooling Degree Days 22    
Month to date cooling degree days  
Year to date cooling degree days  
Since 1 June cooling degree days  
Growing Degree Days 36 (Base 50)    
Moisture  
Dew Point 72 °F    
Average Humidity 67    
Maximum Humidity 79    
Minimum Humidity 46    
Precipitation  
Precipitation 0.22 in 0.19 in 1.78 in (2014)
Month to date precipitation 2.29  
Year to date precipitation 35.19  
Sea Level Pressure  
Sea Level Pressure 30.09 in    
Wind  
Wind Speed 5 mph (SE)    
Max Wind Speed 10 mph    
Max Gust Speed 17 mph    
Visibility 10 miles    
Events      
T = Trace of Precipitation, MM = Missing Value Source: NWS Daily Summary

Daily Weather History Graph

Daily Weather History Graph

Search for Another Location

Airport:

Trip Planner

Search our weather history database for the weather conditions in past years. The results will help you decide how hot, cold, wet, or windy it might be!

Date:

Astronomy

Aug. 11, 2013 Rise Set
Actual Time 6:06 AM CDT 7:28 PM CDT
Civil Twilight 5:40 AM CDT 7:53 PM CDT
Nautical Twilight 5:10 AM CDT 8:24 PM CDT
Astronomical Twilight 4:38 AM CDT 8:55 PM CDT
Moon 10:29 AM CDT (8/11) 10:09 PM CDT (8/11)
Length of Visible Light 14h 12m
Length of Day
13h 21m
Waxing Crescent, 22% of the Moon is Illuminated
Aug 11
Waxing Crescent
Aug 14
First Quarter
Aug 20
Full
Aug 28
Last Quarter
Sep 5
New

Hourly Weather History & Observations

Time (CDT) Temp. Heat Index Dew Point Humidity Pressure Visibility Wind Dir Wind Speed Gust Speed Precip Events Conditions
12:15 AM 84.2 °F 90.9 °F 73.4 °F 70% 30.07 in 10.0 mi SSE 8.1 mph - N/A   Clear
12:35 AM 84.2 °F 90.9 °F 73.4 °F 70% 30.07 in 10.0 mi SSE 8.1 mph - N/A   Clear
12:55 AM 82.4 °F 88.2 °F 73.4 °F 74% 30.07 in 10.0 mi South 6.9 mph - N/A   Clear
1:15 AM 82.4 °F 88.2 °F 73.4 °F 74% 30.07 in 10.0 mi SSE 4.6 mph - N/A   Clear
1:35 AM 82.4 °F 88.2 °F 73.4 °F 74% 30.07 in 10.0 mi SSE 4.6 mph - N/A   Clear
1:55 AM 82.4 °F 88.2 °F 73.4 °F 74% 30.06 in 10.0 mi SSE 5.8 mph - N/A   Clear
2:15 AM 82.4 °F 88.2 °F 73.4 °F 74% 30.06 in 10.0 mi SSE 4.6 mph - N/A   Clear
2:35 AM 82.4 °F 88.2 °F 73.4 °F 74% 30.06 in 10.0 mi SSE 4.6 mph - N/A   Clear
2:55 AM 82.4 °F 88.2 °F 73.4 °F 74% 30.06 in 10.0 mi SSE 4.6 mph - N/A   Clear
3:15 AM 82.4 °F 88.2 °F 73.4 °F 74% 30.06 in 10.0 mi Calm Calm - N/A   Clear
3:35 AM 82.4 °F 88.2 °F 73.4 °F 74% 30.06 in 10.0 mi SE 3.5 mph - N/A   Clear
3:55 AM 82.4 °F 88.2 °F 73.4 °F 74% 30.06 in 10.0 mi East 3.5 mph - N/A   Clear
4:15 AM 80.6 °F 85.4 °F 73.4 °F 79% 30.07 in 10.0 mi East 3.5 mph - N/A   Clear
4:35 AM 82.4 °F 88.2 °F 73.4 °F 74% 30.07 in 10.0 mi East 3.5 mph - N/A   Clear
4:55 AM 82.4 °F 88.2 °F 73.4 °F 74% 30.07 in 10.0 mi Calm Calm - N/A   Clear
5:15 AM 80.6 °F 85.4 °F 73.4 °F 79% 30.07 in 10.0 mi ESE 4.6 mph - N/A   Clear
5:35 AM 82.4 °F 88.2 °F 73.4 °F 74% 30.07 in 10.0 mi ESE 3.5 mph - N/A   Clear
5:55 AM 82.4 °F 88.2 °F 73.4 °F 74% 30.08 in 10.0 mi ESE 4.6 mph - N/A   Clear
6:15 AM 82.4 °F 88.2 °F 73.4 °F 74% 30.09 in 10.0 mi ESE 3.5 mph - N/A   Clear
6:35 AM 82.4 °F 88.2 °F 73.4 °F 74% 30.09 in 10.0 mi Calm Calm - N/A   Clear
6:55 AM 82.4 °F 88.2 °F 73.4 °F 74% 30.10 in 10.0 mi South 3.5 mph - N/A   Clear
7:15 AM 82.4 °F 88.2 °F 73.4 °F 74% 30.10 in 10.0 mi SSE 3.5 mph - N/A   Clear
7:35 AM 82.4 °F 88.2 °F 73.4 °F 74% 30.11 in 10.0 mi South 3.5 mph - N/A   Clear
7:55 AM 84.2 °F 90.9 °F 73.4 °F 70% 30.11 in 10.0 mi SSE 8.1 mph - N/A   Clear
8:15 AM 84.2 °F 90.9 °F 73.4 °F 70% 30.11 in 10.0 mi SE 6.9 mph - N/A   Clear
8:35 AM 84.2 °F 89.6 °F 71.6 °F 66% 30.11 in 10.0 mi SE 6.9 mph - N/A   Clear
8:55 AM 86.0 °F 91.8 °F 71.6 °F 62% 30.12 in 10.0 mi SSE 4.6 mph - N/A   Partly Cloudy
9:15 AM 87.8 °F 93.8 °F 71.6 °F 58% 30.12 in 10.0 mi SSE 5.8 mph - N/A   Scattered Clouds
9:35 AM 86.0 °F 91.8 °F 71.6 °F 62% 30.12 in 10.0 mi SSE 6.9 mph - N/A   Mostly Cloudy
9:55 AM 87.8 °F 95.6 °F 73.4 °F 62% 30.12 in 10.0 mi SSE 6.9 mph - N/A   Mostly Cloudy
10:15 AM 89.6 °F 96.2 °F 71.6 °F 55% 30.12 in 10.0 mi SE 10.4 mph - N/A   Scattered Clouds
10:35 AM 89.6 °F 96.2 °F 71.6 °F 55% 30.12 in 10.0 mi SSE 10.4 mph 16.1 mph N/A   Partly Cloudy
10:55 AM 89.6 °F 96.2 °F 71.6 °F 55% 30.12 in 10.0 mi SE 9.2 mph 17.3 mph N/A   Mostly Cloudy
11:15 AM 89.6 °F 96.2 °F 71.6 °F 55% 30.12 in 10.0 mi SSE 9.2 mph - N/A   Scattered Clouds
11:35 AM 84.2 °F 89.6 °F 71.6 °F 66% 30.12 in 10.0 mi SE 8.1 mph - N/A   Partly Cloudy
11:55 AM 84.2 °F 89.6 °F 71.6 °F 66% 30.12 in 10.0 mi SSE 9.2 mph - N/A   Clear
12:15 PM 89.6 °F 96.2 °F 71.6 °F 55% 30.12 in 10.0 mi East 4.6 mph - N/A   Clear
12:35 PM 91.4 °F 98.4 °F 71.6 °F 52% 30.11 in 10.0 mi SSE 9.2 mph - N/A   Clear
12:55 PM 93.2 °F 100.5 °F 71.6 °F 49% 30.11 in 10.0 mi SSE 6.9 mph - N/A   Clear
1:15 PM 91.4 °F 98.4 °F 71.6 °F 52% 30.11 in 10.0 mi South 9.2 mph - N/A   Partly Cloudy
1:35 PM 93.2 °F 100.5 °F 71.6 °F 49% 30.11 in 10.0 mi South 8.1 mph - N/A   Scattered Clouds
1:55 PM 93.2 °F 98.8 °F 69.8 °F 46% 30.11 in 10.0 mi South 6.9 mph - N/A   Mostly Cloudy
2:15 PM 91.4 °F 100.1 °F 73.4 °F 55% 30.10 in 10.0 mi East 5.8 mph - N/A   Overcast
2:35 PM 84.2 °F 90.9 °F 73.4 °F 70% 30.10 in 3.0 mi SW 5.8 mph 17.3 mph 0.21 in   Overcast
2:55 PM 82.4 °F 87.2 °F 71.6 °F 70% 30.09 in 10.0 mi Calm Calm - 0.22 in   Scattered Clouds
3:15 PM 86.0 °F 93.4 °F 73.4 °F 66% 30.08 in 10.0 mi SE 8.1 mph - N/A   Partly Cloudy
3:35 PM 82.4 °F 88.2 °F 73.4 °F 74% 30.09 in 10.0 mi Calm Calm - N/A   Scattered Clouds
3:55 PM 80.6 °F 84.6 °F 71.6 °F 74% 30.09 in 10.0 mi WSW 4.6 mph - N/A   Partly Cloudy
4:15 PM 80.6 °F 84.6 °F 71.6 °F 74% 30.09 in 10.0 mi Calm Calm - N/A   Clear
4:35 PM 82.4 °F 87.2 °F 71.6 °F 70% 30.08 in 10.0 mi Calm Calm - N/A   Clear
4:55 PM 82.4 °F 87.2 °F 71.6 °F 70% 30.07 in 10.0 mi North 3.5 mph - N/A   Clear
5:15 PM 84.2 °F 89.6 °F 71.6 °F 66% 30.07 in 10.0 mi Calm Calm - N/A   Scattered Clouds
5:35 PM 84.2 °F 89.6 °F 71.6 °F 66% 30.09 in 10.0 mi SSE 8.1 mph - N/A   Overcast
5:55 PM 84.2 °F 89.6 °F 71.6 °F 66% 30.08 in 10.0 mi SE 3.5 mph - N/A   Mostly Cloudy
6:15 PM 84.2 °F 88.4 °F 69.8 °F 62% 30.07 in 10.0 mi ENE 4.6 mph - N/A   Mostly Cloudy
6:35 PM 84.2 °F 88.4 °F 69.8 °F 62% 30.08 in 10.0 mi Calm Calm - N/A   Partly Cloudy
6:55 PM 84.2 °F 89.6 °F 71.6 °F 66% 30.09 in 10.0 mi Calm Calm - N/A   Clear
7:15 PM 84.2 °F 88.4 °F 69.8 °F 62% 30.09 in 10.0 mi SE 3.5 mph - N/A   Clear
7:35 PM 84.2 °F 89.6 °F 71.6 °F 66% 30.09 in 10.0 mi SE 4.6 mph - N/A   Clear
7:55 PM 84.2 °F 89.6 °F 71.6 °F 66% 30.09 in 10.0 mi SE 3.5 mph - N/A   Clear
8:15 PM 84.2 °F 89.6 °F 71.6 °F 66% 30.10 in 10.0 mi SSE 4.6 mph - N/A   Clear
8:35 PM 84.2 °F 89.6 °F 71.6 °F 66% 30.10 in 10.0 mi South 4.6 mph - N/A   Clear
8:55 PM 84.2 °F 89.6 °F 71.6 °F 66% 30.11 in 10.0 mi SSE 5.8 mph - N/A   Clear
9:15 PM 84.2 °F 89.6 °F 71.6 °F 66% 30.11 in 10.0 mi South 4.6 mph - N/A   Clear
9:35 PM 84.2 °F 89.6 °F 71.6 °F 66% 30.12 in 10.0 mi SE 3.5 mph - N/A   Clear
9:55 PM 82.4 °F 87.2 °F 71.6 °F 70% 30.12 in 10.0 mi Calm Calm - N/A   Clear
10:15 PM 84.2 °F 90.9 °F 73.4 °F 70% 30.12 in 10.0 mi SSE 4.6 mph - N/A   Clear
10:35 PM 84.2 °F 90.9 °F 73.4 °F 70% 30.12 in 10.0 mi SSE 4.6 mph - N/A   Clear
10:55 PM 82.4 °F 88.2 °F 73.4 °F 74% 30.12 in 10.0 mi SE 4.6 mph - N/A   Clear
11:15 PM 82.4 °F 88.2 °F 73.4 °F 74% 30.11 in 10.0 mi SE 3.5 mph - N/A   Clear
11:35 PM 82.4 °F 88.2 °F 73.4 °F 74% 30.12 in 10.0 mi SE 3.5 mph - N/A   Clear
11:55 PM 82.4 °F 88.2 °F 73.4 °F 74% 30.11 in 10.0 mi SSE 4.6 mph - N/A   Clear